Weather History for KFHU - November, 2014

Change the Weather History Date:

Tuesday, November 11, 2014

  Actual Average Record
Temperature  
Mean Temperature 60 °F -  
Max Temperature 73 °F 66 °F 81 °F (1989)
Min Temperature 48 °F 45 °F 34 °F (2012)
Degree Days  
Heating Degree Days 4    
Growing Degree Days 10 (Base 50)    
Moisture  
Dew Point 43 °F    
Average Humidity 52    
Maximum Humidity 80    
Minimum Humidity 29    
Precipitation  
Precipitation 0.00 in - - ()
Sea Level Pressure  
Sea Level Pressure 29.91 in    
Wind  
Wind Speed 7 mph (WSW)    
Max Wind Speed 15 mph    
Max Gust Speed 22 mph    
Visibility 10 miles    
Events      
Averages and records for this station are not official NWS values.
T = Trace of Precipitation, MM = Missing Value Source: NWS Daily Summary

Daily Weather History Graph

Daily Weather History Graph

Search for Another Location

Airport or City:

Trip Planner

Search our weather history database for the weather conditions in past years. The results will help you decide how hot, cold, wet, or windy it might be!

Date:

Astronomy

Nov. 11, 2014 Rise Set
Actual Time 6:45 AM MST 5:24 PM MST
Civil Twilight 6:20 AM MST 5:50 PM MST
Nautical Twilight 5:51 AM MST 6:19 PM MST
Astronomical Twilight 5:22 AM MST 6:48 PM MST
Moon 9:51 PM MST (11/11) 10:54 AM MST (11/11)
Length of Visible Light 11h 29m
Length of Day
10h 38m
Waning Gibbous, 76% of the Moon is Illuminated
Nov 11
Waning Gibbous
Nov 14
Last Quarter
Nov 22
New
Nov 29
First Quarter
Dec 6
Full

Hourly Weather History & Observations

Time (MST) Temp. Dew Point Humidity Pressure Visibility Wind Dir Wind Speed Gust Speed Precip Events Conditions
12:56 AM 59.0 °F 44.1 °F 58% 29.87 in 10.0 mi SSW 15.0 mph 21.9 mph N/A   Clear
1:56 AM 59.0 °F 44.1 °F 58% 29.88 in 10.0 mi WSW 3.5 mph - N/A   Clear
2:56 AM 57.0 °F 44.1 °F 62% 29.88 in 10.0 mi SSW 8.1 mph - N/A   Clear
3:56 AM 53.1 °F 43.0 °F 69% 29.89 in 10.0 mi East 5.8 mph - N/A   Clear
4:56 AM 53.1 °F 43.0 °F 69% 29.90 in 10.0 mi NNE 4.6 mph - N/A   Clear
5:56 AM 48.9 °F 43.0 °F 80% 29.93 in 10.0 mi NE 6.9 mph - N/A   Clear
6:56 AM 52.0 °F 44.1 °F 74% 29.92 in 10.0 mi Calm Calm - N/A   Clear
7:56 AM 55.9 °F 44.1 °F 64% 29.94 in 10.0 mi Calm Calm - N/A   Clear
8:56 AM 60.1 °F 43.0 °F 53% 29.94 in 10.0 mi NNE 5.8 mph - N/A   Clear
9:56 AM 64.0 °F 42.1 °F 45% 29.93 in 10.0 mi Calm Calm - N/A   Clear
10:56 AM 68.0 °F 39.9 °F 36% 29.91 in 10.0 mi Calm Calm - N/A   Clear
11:39 AM 69.8 °F 39.2 °F 33% 30.05 in 10.0 mi Variable 3.5 mph - N/A   Partly Cloudy
11:56 AM 69.1 °F 39.9 °F 35% 29.90 in 10.0 mi WNW 3.5 mph - N/A   Clear
12:56 PM 73.0 °F 41.0 °F 31% 29.87 in 10.0 mi SW 11.5 mph - N/A   Clear
1:56 PM 73.0 °F 39.0 °F 29% 29.86 in 10.0 mi WSW 10.4 mph 17.3 mph N/A   Clear
2:56 PM 73.0 °F 39.0 °F 29% 29.85 in 10.0 mi SW 10.4 mph - N/A   Clear
3:56 PM 72.0 °F 39.0 °F 30% 29.86 in 10.0 mi WSW 9.2 mph - N/A   Clear
4:56 PM 69.1 °F 41.0 °F 36% 29.88 in 10.0 mi SW 10.4 mph - N/A   Clear
5:56 PM 63.0 °F 43.0 °F 48% 29.91 in 10.0 mi SW 9.2 mph - N/A   Clear
6:56 PM 60.1 °F 44.1 °F 55% 29.92 in 10.0 mi SW 9.2 mph - N/A   Clear
7:56 PM 60.1 °F 45.0 °F 57% 29.91 in 10.0 mi WSW 10.4 mph - N/A   Clear
8:56 PM 59.0 °F 46.0 °F 62% 29.91 in 10.0 mi West 8.1 mph - N/A   Clear
9:56 PM 60.1 °F 46.0 °F 60% 29.91 in 10.0 mi WSW 9.2 mph - N/A   Clear
10:56 PM 55.0 °F 45.0 °F 69% 29.91 in 10.0 mi South 3.5 mph - N/A   Clear
11:56 PM 55.0 °F 45.0 °F 69% 29.90 in 10.0 mi Calm Calm - N/A   Clear